DELTA 1 DEB, 7065

Orbit data source: Space-Track

DELTA 1 DEB, 7065 is space debris in SSO originally from a launch on Tue, 06 Nov 1973 UTC launched from the Air Force Western Test Range (AFWTR). Debris objects in space refer to the collection of defunct objects orbiting the Earth. Examples of debris include non-operational satellites, rocket bodies, and fragments generated from explosions, collisions, or faulty payload assembly.

Loading next visibility...
Identifier
7065, 1973-086BH
Orbit
SSO
Country
Flag of USUS
Related business
Manufacturer
Unknown
Mission
Spacecraft
Bus & Motor
Unknown
Mass
Unknown
Launch date (UTC)
1973-11-06 (53 years ago)
Launch vehicle
Unknown
Launch site
Air Force Western Test Range (AFWTR)
Object type
Payload
Rocket body
Debris
Shape & HBR
Unknown shape, 0.1 m
Radar Cross Section
Medium (>0.1 m² and <1 m²)

Expand to show TLE details & history
Last TLE update: 13 hours ago

TLE from 13 hours ago
0 DELTA 1 DEB
1 07065U 73086BH  26263.41578362  .00000347  00000-0  31355-2 0  9990
2 07065 101.8712 232.3900 0043587 265.1743 247.8168 12.34395119375755
Epoch: 2026-09-20T09:58Z
TLE epoch observation values (Epoch: 2026-09-20T09:58:43.704Z)
Latitude
26.87145°
Longitude
-90.51789°
Altitude
1,546.56 km
Speed
7.09 km/s
True Right ascension
03h 53m 53s
True Declination
26° 44' 49"
Sunlit
Object was in daylight at epoch
Visualization orbit readout
Latitude
Unknown
Longitude
Unknown
Altitude
Unknown
Speed
Unknown
Apparent Right ascension
Unknown
Apparent Declination
Unknown
Sunlit
N/A
Visualization observer readout
Local Sidereal Time
16:16:52
Azimuth
Unknown
Elevation
Unknown
Doppler factor
Unknown
Orbital elements
Apogee altitude
1,562.488 km
Perigee altitude
1,493.567 km
Semi-major axis
7,906.164 km
Eccentricity
0.00436
Inclination
101.8712°
RAAN
232.39°
Arg. of periapsis
265.1743°
True anomaly
247.35525°
Mean anomaly
247.8168°
Eccentric anomaly
247.58593°
Mean motion
3.08741 °/min
Orbital period
116.6 mins
BSTAR
0.0031355
Loading maneuver chart data...
Computing Atmospheric mass density...
Loading historical data...
Loading historical data...
Loading historical data...
Loading historical data...
Loading historical data...
Loading historical data...
Loading historical data...

Documentation

Showing up to 5 results
|